Location: Firnhaberau
(48.4049°N, 10.8963°E)
Time: 07:21:10
(UTC+00:00)

BREEZE-M DEB (TANK) - Pass Details

Date: 07 June 2020
Orbit: 324 x 12054 km, 49.6° (Epoch: 04 July)

Event Time Altitude Azimuth Distance (km) Brightness Sun altitude
Rises 01:23:45 0° 280° (W) 2,416 5.2 -13.2°
Reaches altitude 10° 01:25:53 10° 282° (WNW) 1,309 3.9 -13.1°
Maximum altitude 01:28:16 73° 8° (N) 347 1.2 -12.8°
Drops below altitude 10° 01:30:56 10° 95° (E) 1,458 4.6 -12.6°
Sets 01:33:29 0° 97° (E) 2,764 6.1 -12.4°
